Hourly Data Report for October 01, 2017

All times are specified in Local Standard Time (LST). Add 1 hour to adjust for Daylight Saving Time where and when it is observed.

ABBOTSFORD A
BRITISH COLUMBIA

49°01'31.000" N
122°21'36.000" W
59.10 m
1100031
71108
YXX

Download Data

Hourly Data (October 2017)
Hourly Data Report for October 1, 2017
Temp Definition
°C
Dew Point Temp Definition
°C
Rel Hum Definition
%
Wind Dir Definition
10's deg

Wind Spd Definition
km/h
Visibility Definition
km
Stn Press Definition
kPa
Hmdx Definition


Wind Chill Definition


Weather Definition


TIME
00:00 Legend Double Dagger 10.7 9.9 95 11 8 12.9 101.16     LegendNANA
01:00 Legend Double Dagger 10.6 9.8 95 9 4 12.9 101.18     Cloudy
02:00 Legend Double Dagger 10.6 10.0 96 11 5 11.3 101.17     LegendNANA
03:00 Legend Double Dagger 10.6 9.9 95 12 7 6.4 101.18     Fog
04:00 Legend Double Dagger 10.6 9.7 95 11 4 9.7 101.21     Fog
05:00 Legend Double Dagger 10.5 9.8 96 16 5 9.7 101.21     Fog
06:00 Legend Double Dagger 10.6 9.8 95 17 3 9.7 101.24     Fog
07:00 Legend Double Dagger 10.6 9.7 94 14 4 9.7 101.28     Fog
08:00 Legend Double Dagger 10.9 9.8 93 11 7 9.7 101.30     Fog
09:00 Legend Double Dagger 11.1 9.9 92 12 9 9.7 101.31     Fog
10:00 Legend Double Dagger 12.4 9.5 83 10 4 9.7 101.33     Rain Showers,Fog
11:00 Legend Double Dagger 12.5 9.7 83 29 3 12.9 101.33     LegendNANA
12:00 Legend Double Dagger 13.0 9.7 80 24 5 24.1 101.32     LegendNANA
13:00 Legend Double Dagger 15.4 10.3 71 36 1 32.2 101.30     Mostly Cloudy
14:00 Legend Double Dagger 15.4 7.4 59 26 7 32.2 101.27     LegendNANA
15:00 Legend Double Dagger 15.5 7.4 58 27 12 32.2 101.27     LegendNANA
16:00 Legend Double Dagger 15.2 8.3 63 29 12 32.2 101.28     Mostly Cloudy
17:00 Legend Double Dagger 14.5 8.8 68 28 10 40.2 101.28     LegendNANA
18:00 Legend Double Dagger 13.1 8.3 72 36 1 40.2 101.30     LegendNANA
19:00 Legend Double Dagger 11.8 8.6 81 36 3 24.1 101.35     Clear
20:00 Legend Double Dagger 9.7 7.9 89 3 5 24.1 101.35     LegendNANA
21:00 Legend Double Dagger 9.1 7.6 90 32 5 24.1 101.37     LegendNANA
22:00 Legend Double Dagger 8.5 7.4 93 36 3 24.1 101.38     Mainly Clear
23:00 Legend Double Dagger 7.6 6.9 95 36 3 24.1 101.38     LegendNANA

Notes on Data Quality.

Legend

  • E = Estimated
  • M = Missing
  • NA = Not Available
  • ‡ = Partner data that is not subject to review by the National Climate Archives
Date modified: